Regional Weather Roundup
Issued by NWS

Home | Current Version | Previous Version | Graphics & Text | Print | Product List | Glossary On
Versions: 1 2 3 4 5 6 7 8 9 10 11 12 13 14 15 16 17 18 19 20 21 22 23 24 25 26 27 28 29 30 31 32 33 34 35 36 37 38 39 40 41 42 43 44 45 46 47 48 49 50
000
ASUS45 KTFX 311610
RWRMT
MONTANA REGIONAL WEATHER ROUNDUP
NATIONAL WEATHER SERVICE GREAT FALLS MT
1000 AM MDT FRI JUL 31 2015

NOTE: "FAIR" INDICATES FEW OR NO CLOUDS BELOW 12000 FEET WITH NO
SIGNIFICANT WEATHER AND/OR OBSTRUCTIONS TO VISIBILITY.

MTZ001>007-043-311700-
WEST OF THE DIVIDE

CITY           SKY/WX    TMP DP  RH WIND       PRES   REMARKS
KALISPELL      SUNNY     74  40  29 NE7       30.20F
MISSOULA       MOSUNNY   63  42  46 CALM      30.27F
BUTTE          SUNNY     67  40  37 CALM      30.37F
MULLAN PASS    SUNNY     71  32  23 SE6       30.37S
DEER LODGE       N/A     66  45  45 CALM      30.36F
EUREKA           N/A     72  39  30 CALM      30.19F
HAMILTON         N/A     68  46  45 W2        30.27F
LIBBY            N/A     70  37  30 CALM      30.18F
PLAINS           N/A     69  39  33 CALM      30.19F
RONAN            N/A     75  44  33 CALM      30.24S
$$

MTZ008-052>055-311700-
SOUTHWEST MONTANA

CITY           SKY/WX    TMP DP  RH WIND       PRES   REMARKS
BOZEMAN        SUNNY     71  46  40 CALM      30.30F
DILLON         SUNNY     68  46  45 SW6       30.34F
W YELLOWSTONE  SUNNY     59  39  47 CALM      30.45F
THREE FORKS      N/A     70  21  15 E2        30.26F
TWIN BRIDGES     N/A     68  41  37 S7        30.28F
$$

MTZ009-010-012-014-046-048-049-054-311700-
EAST SLOPES AND CENTRAL MONTANA

CITY           SKY/WX    TMP DP  RH WIND       PRES   REMARKS
CUT BANK       SUNNY     80  40  23 VRB3      30.20F
GREAT FALLS    MOSUNNY   76  41  28 SW8       30.20F
MALMSTROM AFB  MOSUNNY   76  45  32 SW10      30.20F
HELENA         SUNNY     69  43  38 VRB3      30.27F
$$

MTZ011-013-016-021-045-047-050-051-311700-
NORTH CENTRAL MONTANA

CITY           SKY/WX    TMP DP  RH WIND       PRES   REMARKS
HAVRE          SUNNY     73  49  42 VRB6      30.13F
LEWISTOWN      SUNNY     79  45  29 VRB3      30.23S
CHINOOK          N/A     72  55  56 CALM      30.13F
$$

MTZ017>020-022>027-061-062-311700-
NORTHEAST MONTANA

CITY           SKY/WX    TMP DP  RH WIND       PRES   REMARKS
GLASGOW        SUNNY     78  46  32 SE5       30.15F
JORDAN           N/A     83  47  28 CALM      30.15F
SIDNEY         SUNNY    N/A N/A N/A SE7       30.15F
WOLF POINT     SUNNY     78  50  37 SW3       30.16F
MALTA            N/A     77  53  43 NE5       30.09F
PLENTYWOOD       N/A     73  52  46 N6        30.17F
POPLAR           N/A     75  54  46 CALM      30.17F
SCOBEY           N/A     72  52  49 N6        30.16F
$$

MTZ028>42-056>058-311700-
SOUTHCENTRAL AND SOUTHEAST MONTANA

CITY           SKY/WX    TMP DP  RH WIND       PRES   REMARKS
BAKER          SUNNY     85  42  22 VRB6      30.22F
BILLINGS       MOSUNNY   71  44  37 SW12      30.23F
LIVINGSTON     SUNNY     76  45  33 NW3       30.27F
MILES CITY     SUNNY     79  50  36 SE7       30.17F
EKALAKA          N/A     83  39  20 E3        30.20F
FORSYTH          N/A     88  39  18 SE12      30.16F
LAUREL           N/A     74  42  31 S6        30.20F
ROUNDUP          N/A     74  45  35 S5        30.10F
$$

REGIONAL REPORTS...DAKOTAS

CITY           SKY/WX    TMP DP  RH WIND       PRES   REMARKS
WILLISTON      SUNNY     75  52  44 NE5       30.17S
MINOT          SUNNY     76  50  40 NW7       30.12F
DICKINSON      SUNNY     82  46  28 W12       30.17F
BEACH          FAIR      82  41  23 N5        30.20F
CROSBY         FAIR      73  54  49 N8        30.17S
BISMARCK       SUNNY     78  53  41 S8        30.14F
GRAND FORKS    MOSUNNY   76  52  43 NW17G24   30.05F
FARGO          SUNNY     77  55  46 W13       30.09F
BUFFALO SD       N/A     81  49  32 VRB3      30.16F
RAPID CITY     SUNNY     76  53  44 NW6       30.24S
$$

REGIONAL REPORTS...WYOMING/IDAHO/WASHINGTON

CITY           SKY/WX    TMP DP  RH WIND       PRES   REMARKS
GILLETTE       SUNNY     81  43  26 S5        30.26F
SHERIDAN       SUNNY     76  46  34 CALM      30.24F
BUFFALO WY     SUNNY     81  39  22 VRB3      30.31F
CODY           SUNNY     79  36  21 SW7       30.31F
YELLOWSTONE LA   N/A     57  45  64 E3        30.54F
IDAHO FALLS    SUNNY     70  45  40 N3        30.32S
SALMON         SUNNY     64  43  45 CALM      30.30F
BOISE          SUNNY     81  36  19 S5        30.19S
SPOKANE        MOSUNNY   76  44  32 E6        30.13F
$$

REGIONAL REPORTS...ALBERTA

CITY           SKY/WX    TMP DP  RH WIND       PRES   REMARKS
EDMONTON       SUNNY     72  46  40 S13       30.09F
CALGARY        MOSUNNY   68  46  45 SW7       30.16F
LETHBRIDGE     MOSUNNY   68  48  49 W8        30.17F
MEDICINE HAT   SUNNY     73  50  43 CALM      30.12F
WATERTON GATE    N/A     75  45  33 S8          N/A
CARDSTON         N/A     73  45  35 SE3         N/A
MILK RIVER       N/A     79  45  29 W13         N/A
ONEFOUR          N/A     72  46  40 NW2         N/A
$$

REGIONAL REPORTS...SASKATCHEWAN

CITY           SKY/WX    TMP DP  RH WIND       PRES   REMARKS
SWIFT CURRENT  SUNNY     72  52  49 SE8       30.17F
REGINA         MOSUNNY   73  52  46 NW7       30.17S
SASKATOON      MOSUNNY   66  54  63 W8        30.16S
CYPRESS HILLS    N/A     70  46  43 SE7         N/A
VAL MARIE        N/A     75  54  46 SE6         N/A
ROCKGLEN         N/A     70  50  49 NE3         N/A
ASSINIBOIA       N/A     70  54  56 S8          N/A
$$



USA.gov is the U.S. government's official web portal to all federal, state and local government web resources and services.